Flag for U.S.A. Weather past 2 weeks in Elizabeth, New Jersey, U.S.A.

Now
26 °F

Overcast.


Feels Like: 17 °F
Forecast: 18 / 26 °F
Wind: 9 mph from Northwest

Location: Newark International Airport

Current Time: Feb 26, 2015 at 8:12:52 PM

Latest Report: Feb 26, 2015 at 6:51 PM


Visibility: 10 mi

Pressure: 30.05 "Hg

Humidity: 60%

Dew point: 14 °F

Location of ElizabethLocation

Historic Weather in Elizabeth — Graph

°F

Elizabeth temperature yesterday

Maximum temperature yesterday: 36 °F (at 1:51 PM)
Minimum temperature yesterday: 14 °F (at 5:51 AM)
Average temperature yesterday: 28 °F

Past Weeks' High & Low Weather Summary

 TemperatureHumidityPressure
High42 °F (Feb 22, 3:51 PM)96% (Feb 21, 6:51 PM)30.53 "Hg (Feb 21, 6:51 PM)
Low1 °F (Feb 20, 5:51 AM)30% (Feb 23, 2:51 PM)29.46 "Hg (Feb 14, 11:51 PM)
Average21 °F57%30.03 "Hg
* Reported Feb 11 6:51 PM — Feb 26 6:51 PM, Elizabeth, Weather by CustomWeather, © 2015

Note: Actual official high and low records may vary slightly from our data, if they occured in-between our weather recording intervals... More about our weather records

Advertising

Elizabeth weather history for previous 24 hours

 ConditionsComfort  
Time TempWeatherWind HumidityBarometerVisibility
6:51 PM
Thu, Feb 26
26 °FOvercast.9 mph60%30.05 "Hg10 mi
5:51 PM27 °FOvercast.9 mph61%30.02 "Hg10 mi
4:51 PM27 °FOvercast.7 mph66%30.01 "Hg10 mi
3:51 PM26 °FOvercast.6 mph66%29.98 "Hg10 mi
2:51 PM25 °FBroken clouds.10 mph72%29.96 "Hg10 mi
1:51 PM24 °FBroken clouds.14 mph71%29.92 "Hg10 mi
12:51 PM24 °FBroken clouds.14 mph71%29.95 "Hg10 mi
11:51 AM23 °FLight snow. Mostly cloudy.16 mph68%29.99 "Hg6 mi
10:51 AM22 °FOvercast.17 mph60%30.02 "Hg10 mi
9:51 AM21 °FOvercast.16 mph57%30.01 "Hg10 mi
8:51 AM20 °FOvercast.17 mph60%30.01 "Hg10 mi
7:51 AM21 °FOvercast.17 mph57%30.01 "Hg10 mi
6:51 AM21 °FOvercast.14 mph55%30.02 "Hg10 mi
5:51 AM22 °FOvercast.14 mph52%30.01 "Hg10 mi
4:51 AM22 °FOvercast.15 mph57%30.00 "Hg10 mi
3:51 AM24 °FMostly cloudy.16 mph50%30.01 "Hg10 mi
2:51 AM26 °FOvercast.15 mph48%30.00 "Hg10 mi
1:51 AM27 °FOvercast.14 mph53%30.00 "Hg10 mi
12:51 AM28 °FOvercast.13 mph53%30.02 "Hg10 mi
11:51 PM
Wed, Feb 25
29 °FOvercast.8 mph58%30.00 "Hg10 mi
10:51 PM29 °FHigh level clouds.7 mph58%29.96 "Hg10 mi
9:51 PM32 °FHigh level clouds.3 mph52%29.99 "Hg10 mi
8:51 PM32 °FHigh level clouds.7 mph50%29.98 "Hg10 mi
Weather by CustomWeather, © 2015

See weather overviewHow to use our weather pages